Weather History for KEVV - November, 2013

Change the Weather History Date:

Saturday, November 9, 2013

  Actual Average Record
Temperature  
Mean Temperature 53 °F 49 °F  
Max Temperature 64 °F 60 °F 78 °F (1942)
Min Temperature 41 °F 39 °F 17 °F (1991)
Degree Days  
Heating Degree Days 12 16  
Month to date heating degree days 139 128  
Since 1 July heating degree days 398 431  
Cooling Degree Days 0 0  
Month to date cooling degree days 0 0  
Year to date cooling degree days 1464 1395  
Growing Degree Days 2 (Base 50)    
Moisture  
Dew Point 36 °F    
Average Humidity 61    
Maximum Humidity 82    
Minimum Humidity 39    
Precipitation  
Precipitation 0.00 in 0.13 in 1.46 in (1979)
Month to date precipitation 0.36 1.18  
Year to date precipitation 44.57 38.40  
Snow  
Snow 0.00 in 0.00 in 0.40 in (1998)
Month to date snowfall T 0.0  
Since 1 July snowfall T 0.2  
Since 1 September snowfall T 0.2  
Snow Depth 0.00 in    
Sea Level Pressure  
Sea Level Pressure 30.18 in    
Wind  
Wind Speed 10 mph (SW)    
Max Wind Speed 25 mph    
Max Gust Speed 35 mph    
Visibility 10 miles    
Events      
T = Trace of Precipitation, MM = Missing Value Source: NWS Daily Summary

Daily Weather History Graph

Daily Weather History Graph

Search for Another Location

Airport or City:

Trip Planner

Search our weather history database for the weather conditions in past years. The results will help you decide how hot, cold, wet, or windy it might be!

Date:

Astronomy

Nov. 09, 2013 Rise Set
Actual Time 6:24 AM CST 4:42 PM CST
Civil Twilight 5:56 AM CST 5:10 PM CST
Nautical Twilight 5:25 AM CST 5:42 PM CST
Astronomical Twilight 4:54 AM CST 6:12 PM CST
Moon 12:02 PM CST (11/9) 11:11 PM CST (11/9)
Length of Visible Light 11h 13m
Length of Day
10h 18m
Waxing Crescent, 44% of the Moon is Illuminated
Nov 9
Waxing Crescent
Nov 9
First Quarter
Nov 17
Full
Nov 25
Last Quarter
Dec 2
New

Hourly Weather History & Observations

Time (CST) Temp. Windchill Dew Point Humidity Pressure Visibility Wind Dir Wind Speed Gust Speed Precip Events Conditions
12:54 AM 43.0 °F 39.5 °F 27.0 °F 53% 30.21 in 10.0 mi South 5.8 mph - N/A   Clear
1:54 AM 44.1 °F 40.1 °F 27.0 °F 51% 30.21 in 10.0 mi South 6.9 mph - N/A   Clear
2:54 AM 43.0 °F 38.8 °F 27.0 °F 53% 30.19 in 10.0 mi South 6.9 mph - N/A   Clear
3:54 AM 43.0 °F 38.2 °F 28.0 °F 56% 30.19 in 10.0 mi South 8.1 mph - N/A   Clear
4:54 AM 42.1 °F 38.4 °F 28.0 °F 58% 30.19 in 10.0 mi South 5.8 mph - N/A   Clear
5:54 AM 43.0 °F 37.7 °F 30.0 °F 60% 30.19 in 10.0 mi South 9.2 mph - N/A   Clear
6:54 AM 41.0 °F 36.4 °F 30.9 °F 67% 30.20 in 10.0 mi SSW 6.9 mph - N/A   Clear
7:54 AM 46.9 °F - 34.0 °F 61% 30.19 in 10.0 mi SSW 12.7 mph - N/A   Clear
8:54 AM 51.1 °F - 36.0 °F 56% 30.19 in 10.0 mi SSW 15.0 mph - N/A   Clear
9:54 AM 55.9 °F - 37.9 °F 51% 30.18 in 10.0 mi SW 18.4 mph 28.8 mph N/A   Clear
10:54 AM 60.1 °F - 37.0 °F 42% 30.16 in 10.0 mi SW 20.7 mph 28.8 mph N/A   Clear
11:54 AM 62.1 °F - 37.9 °F 41% 30.14 in 10.0 mi SW 17.3 mph 27.6 mph N/A   Clear
12:54 PM 63.0 °F - 37.9 °F 40% 30.13 in 10.0 mi WSW 11.5 mph - N/A   Clear
1:54 PM 64.0 °F - 39.0 °F 40% 30.12 in 10.0 mi SW 13.8 mph - N/A   Partly Cloudy
2:54 PM 64.0 °F - 39.9 °F 41% 30.12 in 10.0 mi WSW 17.3 mph - N/A   Clear
3:54 PM 62.1 °F - 39.9 °F 44% 30.12 in 10.0 mi WSW 15.0 mph 19.6 mph N/A   Clear
4:54 PM 55.0 °F - 39.9 °F 57% 30.13 in 10.0 mi SSW 4.6 mph - N/A   Clear
5:54 PM 51.1 °F - 39.9 °F 66% 30.16 in 10.0 mi SW 6.9 mph - N/A   Clear
6:54 PM 52.0 °F - 41.0 °F 66% 30.17 in 10.0 mi SW 6.9 mph - N/A   Clear
7:54 PM 54.0 °F - 42.1 °F 64% 30.19 in 10.0 mi SW 10.4 mph - N/A   Clear
8:54 PM 52.0 °F - 42.1 °F 69% 30.20 in 10.0 mi WSW 6.9 mph - N/A   Clear
9:54 PM 46.9 °F - 41.0 °F 80% 30.21 in 10.0 mi SW 5.8 mph - N/A   Clear
10:54 PM 50.0 °F - 42.1 °F 74% 30.20 in 10.0 mi WSW 6.9 mph - N/A   Clear
11:54 PM 50.0 °F - 43.0 °F 77% 30.21 in 10.0 mi West 6.9 mph - N/A   Clear